EDT,Max TemperatureF,Mean TemperatureF,Min TemperatureF,Max Dew PointF,MeanDew PointF,Min DewpointF,Max Humidity, Mean Humidity, Min Humidity, Max Sea Level PressureIn, Mean Sea Level PressureIn, Min Sea Level PressureIn, Max VisibilityMiles, Mean VisibilityMiles, Min VisibilityMiles, Max Wind SpeedMPH, Mean Wind SpeedMPH, Max Gust SpeedMPH,PrecipitationIn, CloudCover, Events, WindDirDegrees
2013-3-1,35,32,30,30,29,25,100,84,70,30.05,30.02,29.99,10,8,2,8,5,,0.00,8,,300
2013-3-2,33,30,28,30,28,25,100,90,75,30.11,30.05,29.99,10,8,2,12,6,,0.00,8,,326
2013-3-3,39,32,24,25,21,16,93,71,41,30.14,30.10,30.08,10,10,4,12,7,,0.00,4,,320
2013-3-4,53,38,23,32,24,19,93,54,33,30.14,30.05,29.92,10,10,10,20,5,,0.00,3,,144
2013-3-5,55,44,32,55,42,27,100,81,44,29.99,29.87,29.69,10,9,2,22,11,43,0.00,8,,226
2013-3-6,39,34,28,28,24,18,86,70,60,30.27,30.16,29.99,10,10,10,20,13,29,0.00,7,,330
2013-3-7,42,35,28,30,27,25,93,77,57,30.35,30.30,30.26,10,10,10,12,6,,0.00,4,,18
2013-3-8,57,39,21,28,25,18,100,65,21,30.37,30.30,30.26,10,9,5,12,2,,0.00,0,,11
2013-3-9,64,48,33,34,30,27,87,45,27,30.26,30.19,30.08,10,10,10,17,7,,0.00,0,,142
2013-3-10,69,61,53,43,35,30,48,37,27,30.12,30.02,29.89,10,10,10,25,15,43,0.00,0,,158
2013-3-11,64,52,37,54,45,32,100,78,45,29.97,29.86,29.78,10,9,2,26,16,40,0.00,6,,214
2013-3-12,51,42,33,32,30,27,93,64,43,30.15,30.06,29.96,10,10,10,12,7,,0.00,3,,330
2013-3-13,44,35,26,30,24,19,100,66,37,30.36,30.24,30.13,10,10,10,14,4,23,0.00,2,,330
2013-3-14,51,36,21,37,21,14,100,59,22,30.42,30.34,30.24,10,10,5,9,4,,0.00,2,,360
2013-3-15,73,54,35,45,39,30,93,59,36,30.24,30.07,29.95,10,10,10,17,8,,0.00,0,,193
2013-3-16,73,65,57,48,45,41,63,49,38,29.95,29.92,29.86,10,10,10,18,12,23,0.00,1,,238
2013-3-17,71,62,53,54,48,43,77,59,38,29.98,29.91,29.86,10,10,10,16,7,,0.00,2,,228
2013-3-18,62,58,50,59,54,46,100,85,67,29.94,29.82,29.76,10,9,2,20,9,,0.00,7,,189
2013-3-19,55,44,33,46,31,19,100,63,28,30.15,30.10,29.95,10,10,1,14,6,,0.00,1,,360
2013-3-20,53,42,30,30,24,16,93,54,26,30.16,30.08,29.97,10,10,10,17,5,30,0.00,4,,320
2013-3-21,41,31,21,27,15,10,86,53,36,30.08,30.01,29.95,10,10,10,16,7,,0.00,0,,341
2013-3-22,46,38,30,36,25,18,80,56,39,30.04,30.00,29.96,10,10,6,10,4,,0.00,8,,124
2013-3-23,53,46,39,48,42,34,100,86,66,29.99,29.90,29.72,10,8,2,21,6,,0.00,7,,119
2013-3-24,62,50,37,54,45,27,100,80,58,29.74,29.60,29.42,10,9,2,23,10,36,0.00,7,,199
2013-3-25,37,34,30,27,23,21,86,68,56,30.11,29.92,29.75,10,10,6,21,14,33,0.00,8,,278
2013-3-26,35,32,30,28,26,23,93,77,65,30.33,30.21,30.10,10,10,3,13,9,,0.00,8,,310
2013-3-27,48,36,23,30,26,21,100,67,40,30.39,30.33,30.29,10,10,10,10,3,,0.00,2,,323
2013-3-28,57,40,24,34,29,25,100,68,36,30.38,30.32,30.27,10,10,10,10,1,,0.00,1,,335
2013-3-29,57,45,33,39,34,30,93,63,41,30.33,30.26,30.18,10,10,10,9,3,,0.00,5,,93
2013-3-30,66,54,42,55,44,34,100,72,40,30.20,30.11,29.99,10,8,2,9,4,,0.00,5,,124
2013-3-31,60,56,51,57,54,52,100,95,77,29.98,29.93,29.88,10,9,2,10,5,,0.00,8,,253